CUBEBUG-2 (LO-74) (39440 NORAD) Tracking and Keplerian Element Data

This shows tracking and keplerian element data for the satellite.

Feedback or suggestion? Click here.




ElementValue
Catalog39440
NameCUBEBUG-2 (LO-74)
Epoch Orbit26754
Epoch Day322.94025383
Epoch Year2018
RAAN328.9677
Inclination97.5994
Eccentricity0.008156
Argument of Perigee53.5614
Mean Anonmoly307.308
Mean Motion14.75752035
Decay Rate2.73E-06
L11 39440U 13066AA 18322.94025383 .00000273 00000-0 44736-4 0 9996
L22 39440 97.5994 328.9677 0081560 53.5614 307.3080 14.75752035267545

Live tracking and technical data element details for CUBEBUG-2 (LO-74) (NORAD 39440). CUBEBUG-2 (LO-74) can be tracked NOW for your location showing map with azimuth and elevation plus other details from your city location.

Track the satellite on the map from your city or location and see movement details for azimuth, elevation, latitude, longitude, range, height, and movement on the map or in text.







IsCatalogInMostPopularTable: catalog: 39440, numindb: 117
Update: records affected: 1



GetName: 39440 CUBEBUG-2 (LO-74)

Hit Count: updated at: Mon, 19 Nov 2018 14:10:45 GMT